Retour au catalogue

CZ-6A DEB

ActifSSO
NORAD 62338·DEBRIS·🇨🇳 China

Lancé Nov 11, 2022 depuis Taiyuan Satellite Launch Center

Loading…

Prochains Passages (prochaines 24 heures)

TLE

FraisSource: Space-Track

Époque: Sep 14, 2026, 13:17 UTC

1 62338U 22151AJD 26257.55405875  .00002981  00000-0  99313-3 0  9992
2 62338  98.7371 293.8904 0028805  45.8378 314.5169 14.38127855181645

Suivez CZ-6A DEB en temps réel avec AllMySat

Download on the App Store